SDM6593 ULLI-UWKD

Flight info

Callsign SDM6593
Flight time N/A
Altitude 35000
Route SUGIN T873 NIRGI T73 DESUD P164 GAKLU N869 RANTO T540 POGAS T747 OLATU T784 ADMUL L94 UNORO T788 KOROM
Aircraft A319/M-SDE3FGHIRWY/LB1

Departure

Time N/A
Airport Pulkovo Airport (ULLI)

Arrival

Time 2026-05-05 15:01
Airport Kazan International Airport (UWKD)
Time Latitude Longitude Altitude Speed Heading
2026-05-05 14:09 56.67728 40.98295 34849 ft 470 kts 129°
2026-05-05 14:09 56.65505 41.02832 34848 ft 470 kts 129°
2026-05-05 14:10 56.61128 41.12008 34849 ft 469 kts 125°
2026-05-05 14:10 56.57112 41.21636 34849 ft 469 kts 123°
2026-05-05 14:11 56.53111 41.31302 34849 ft 468 kts 123°
2026-05-05 14:11 56.49091 41.40972 34849 ft 469 kts 123°
2026-05-05 14:12 56.45043 41.50661 34848 ft 469 kts 123°
2026-05-05 14:12 56.41002 41.60294 34850 ft 469 kts 123°
2026-05-05 14:13 56.36932 41.69969 34848 ft 469 kts 124°
2026-05-05 14:13 56.32901 41.79526 34850 ft 469 kts 124°
2026-05-05 14:14 56.28816 41.89155 34849 ft 469 kts 124°
2026-05-05 14:14 56.24756 41.98726 34847 ft 468 kts 122°
2026-05-05 14:15 56.21392 42.08989 34849 ft 464 kts 111°
2026-05-05 14:15 56.19247 42.20085 34850 ft 457 kts 99°
2026-05-05 14:16 56.18302 42.31343 34850 ft 454 kts 91°
2026-05-05 14:16 56.17715 42.42823 34850 ft 454 kts 90°
2026-05-05 14:17 56.17124 42.53956 34848 ft 454 kts 90°
2026-05-05 14:17 56.16485 42.65452 34849 ft 454 kts 91°
2026-05-05 14:18 56.15832 42.76881 34849 ft 454 kts 91°
2026-05-05 14:18 56.15175 42.88173 34850 ft 455 kts 91°
2026-05-05 14:19 56.14504 42.99508 34850 ft 454 kts 91°
2026-05-05 14:19 56.13846 43.10463 34851 ft 452 kts 91°
2026-05-05 14:20 56.13211 43.21859 34850 ft 448 kts 89°
2026-05-05 14:20 56.13039 43.32810 34849 ft 446 kts 86°
2026-05-05 14:21 56.12896 43.50486 34849 ft 447 kts 86°
2026-05-05 14:22 56.12787 43.61799 34849 ft 447 kts 86°
2026-05-05 14:22 56.12661 43.73218 34848 ft 447 kts 87°
2026-05-05 14:23 56.12524 43.84623 34849 ft 447 kts 86°
2026-05-05 14:23 56.12378 43.96088 34850 ft 447 kts 86°
2026-05-05 14:24 56.12225 44.07281 34850 ft 447 kts 86°
2026-05-05 14:24 56.12059 44.18669 34847 ft 446 kts 86°
2026-05-05 14:25 56.11882 44.30060 34850 ft 446 kts 86°
2026-05-05 14:25 56.11697 44.41374 34848 ft 447 kts 87°
2026-05-05 14:26 56.11500 44.52728 34850 ft 446 kts 86°
2026-05-05 14:26 56.11290 44.64093 34851 ft 446 kts 86°
2026-05-05 14:27 56.11075 44.75325 34849 ft 447 kts 88°
2026-05-05 14:27 56.10847 44.86650 34850 ft 447 kts 88°
2026-05-05 14:28 56.10605 44.98074 34850 ft 446 kts 88°
2026-05-05 14:28 56.10349 45.09421 34849 ft 444 kts 88°
2026-05-05 14:29 56.10086 45.20485 34850 ft 444 kts 88°
2026-05-05 14:29 56.09816 45.31784 34849 ft 443 kts 88°
2026-05-05 14:30 56.09537 45.43096 34849 ft 444 kts 88°
2026-05-05 14:30 56.09248 45.54390 34849 ft 444 kts 88°
2026-05-05 14:31 56.08950 45.65614 34849 ft 444 kts 89°
2026-05-05 14:31 56.08639 45.76908 34850 ft 444 kts 89°
2026-05-05 14:32 56.08331 45.87760 34848 ft 444 kts 89°
2026-05-05 14:32 56.07990 45.99425 34850 ft 444 kts 89°
2026-05-05 14:33 56.07650 46.10673 34666 ft 437 kts 89°
2026-05-05 14:33 56.07476 46.16225 34408 ft 429 kts 89°
2026-05-05 14:33 56.07304 46.21732 34148 ft 427 kts 89°
2026-05-05 14:34 56.07134 46.27157 33892 ft 425 kts 89°
2026-05-05 14:34 56.06965 46.32397 33642 ft 423 kts 89°
2026-05-05 14:34 56.06790 46.37763 33387 ft 423 kts 89°
2026-05-05 14:34 56.06544 46.43002 33138 ft 425 kts 92°
2026-05-05 14:35 56.06121 46.48293 32888 ft 428 kts 95°
2026-05-05 14:35 56.05500 46.53657 32632 ft 431 kts 99°
2026-05-05 14:35 56.04681 46.59003 32376 ft 433 kts 103°
2026-05-05 14:35 56.03670 46.64258 32120 ft 435 kts 106°
2026-05-05 14:36 56.02576 46.69394 31867 ft 436 kts 107°
2026-05-05 14:36 56.01463 46.74568 31611 ft 437 kts 107°
2026-05-05 14:36 56.00362 46.79682 31358 ft 438 kts 107°
2026-05-05 14:36 55.99238 46.84908 31089 ft 437 kts 108°
2026-05-05 14:37 55.97765 46.91754 30613 ft 437 kts 108°
2026-05-05 14:37 55.97023 46.95194 30276 ft 438 kts 108°
2026-05-05 14:37 55.95895 47.00409 29634 ft 439 kts 108°
2026-05-05 14:37 55.94770 47.05600 28977 ft 439 kts 109°
2026-05-05 14:38 55.93630 47.10828 28267 ft 439 kts 109°
2026-05-05 14:38 55.92499 47.16001 27702 ft 435 kts 109°
2026-05-05 14:38 55.91380 47.21110 27230 ft 429 kts 109°
2026-05-05 14:38 55.90255 47.26229 26726 ft 424 kts 109°
2026-05-05 14:39 55.89170 47.31132 26237 ft 420 kts 109°
2026-05-05 14:39 55.88046 47.36158 25731 ft 416 kts 109°
2026-05-05 14:39 55.86962 47.41006 25256 ft 412 kts 109°
2026-05-05 14:39 55.85877 47.45878 24766 ft 408 kts 109°
2026-05-05 14:40 55.84821 47.50624 24293 ft 404 kts 109°
2026-05-05 14:40 55.83761 47.55388 23814 ft 401 kts 109°
2026-05-05 14:40 55.82717 47.60075 23338 ft 397 kts 109°
2026-05-05 14:40 55.81669 47.64771 22850 ft 394 kts 109°
2026-05-05 14:41 55.80620 47.69470 22352 ft 391 kts 110°
2026-05-05 14:41 55.79588 47.74078 21864 ft 388 kts 110°
2026-05-05 14:41 55.78600 47.78469 21398 ft 386 kts 110°
2026-05-05 14:41 55.77561 47.83075 20911 ft 383 kts 110°
2026-05-05 14:42 55.76546 47.87557 20406 ft 381 kts 110°
2026-05-05 14:42 55.75536 47.92005 19931 ft 378 kts 110°
2026-05-05 14:42 55.74205 47.97859 19309 ft 374 kts 110°
2026-05-05 14:42 55.73567 48.00663 19013 ft 372 kts 110°
2026-05-05 14:43 55.72585 48.04973 18557 ft 369 kts 110°
2026-05-05 14:43 55.71623 48.09191 18110 ft 366 kts 110°
2026-05-05 14:43 55.70669 48.13366 17664 ft 364 kts 110°
2026-05-05 14:43 55.69708 48.17559 17219 ft 361 kts 110°
2026-05-05 14:44 55.68758 48.21702 16775 ft 358 kts 110°
2026-05-05 14:44 55.67825 48.25760 16340 ft 356 kts 110°
2026-05-05 14:44 55.66886 48.29842 15900 ft 353 kts 110°
2026-05-05 14:44 55.65963 48.33844 15468 ft 351 kts 111°
2026-05-05 14:45 55.65042 48.37825 15035 ft 348 kts 111°
2026-05-05 14:45 55.64126 48.41774 14605 ft 346 kts 111°
2026-05-05 14:45 55.63217 48.45668 14181 ft 344 kts 112°
2026-05-05 14:45 55.62199 48.49499 13752 ft 342 kts 116°
2026-05-05 14:46 55.61062 48.53120 13330 ft 340 kts 119°
2026-05-05 14:46 55.59866 48.56711 12903 ft 338 kts 119°
2026-05-05 14:46 55.58678 48.60260 12482 ft 336 kts 119°
2026-05-05 14:46 55.57485 48.63822 12056 ft 334 kts 119°
2026-05-05 14:47 55.56331 48.67274 11641 ft 332 kts 120°
2026-05-05 14:47 55.55216 48.70613 11244 ft 330 kts 120°
2026-05-05 14:47 55.54095 48.73969 10847 ft 327 kts 120°
2026-05-05 14:47 55.52940 48.77420 10441 ft 325 kts 120°
2026-05-05 14:48 55.51795 48.80832 10047 ft 323 kts 119°
2026-05-05 14:48 55.50676 48.84164 9928 ft 308 kts 119°
2026-05-05 14:48 55.49604 48.87350 9867 ft 293 kts 119°
2026-05-05 14:48 55.48591 48.90360 9793 ft 282 kts 119°
2026-05-05 14:49 55.47592 48.93323 9549 ft 281 kts 119°
2026-05-05 14:49 55.46579 48.96324 9202 ft 280 kts 119°
2026-05-05 14:49 55.45594 48.99236 8887 ft 278 kts 118°
2026-05-05 14:49 55.44619 49.02111 8750 ft 268 kts 118°
2026-05-05 14:50 55.43679 49.04881 8646 ft 257 kts 118°
2026-05-05 14:50 55.42762 49.07599 8318 ft 256 kts 120°
2026-05-05 14:50 55.42429 49.08585 8196 ft 256 kts 120°
2026-05-05 14:50 55.41833 49.10339 7999 ft 255 kts 120°
2026-05-05 14:51 55.40909 49.13051 7708 ft 252 kts 120°
2026-05-05 14:51 55.39994 49.15732 7416 ft 250 kts 120°
2026-05-05 14:51 55.39086 49.18387 7135 ft 247 kts 120°
2026-05-05 14:51 55.38188 49.21018 6850 ft 245 kts 121°
2026-05-05 14:52 55.37303 49.23602 6573 ft 242 kts 121°
2026-05-05 14:52 55.36422 49.26173 6300 ft 240 kts 121°
2026-05-05 14:52 55.35544 49.28741 6016 ft 238 kts 121°
2026-05-05 14:52 55.34844 49.31414 5723 ft 236 kts 98°
2026-05-05 14:53 55.35025 49.34253 5467 ft 229 kts 63°
2026-05-05 14:53 55.36021 49.36391 5224 ft 223 kts 36°
2026-05-05 14:53 55.37289 49.38008 4968 ft 220 kts 32°
2026-05-05 14:53 55.38558 49.39545 4712 ft 217 kts 32°
2026-05-05 14:54 55.39811 49.41098 4468 ft 214 kts 33°
2026-05-05 14:54 55.41017 49.42625 4218 ft 207 kts 34°
2026-05-05 14:54 55.42180 49.44116 3987 ft 199 kts 33°
2026-05-05 14:54 55.43284 49.45463 3903 ft 184 kts 32°
2026-05-05 14:55 55.44668 49.47124 3707 ft 169 kts 31°
2026-05-05 14:55 55.45316 49.47897 3609 ft 162 kts 32°
2026-05-05 14:55 55.46260 49.49030 3490 ft 160 kts 32°
2026-05-05 14:55 55.47207 49.50171 3367 ft 159 kts 31°
2026-05-05 14:56 55.48136 49.51289 3248 ft 158 kts 31°
2026-05-05 14:56 55.49060 49.52403 3125 ft 157 kts 31°
2026-05-05 14:56 55.49997 49.53447 3005 ft 154 kts 16°
2026-05-05 14:56 55.51067 49.53370 2988 ft 152 kts 326°
2026-05-05 14:57 55.51728 49.52025 3008 ft 147 kts 295°
2026-05-05 14:57 55.52183 49.50315 2983 ft 147 kts 293°
2026-05-05 14:57 55.52651 49.48697 2887 ft 138 kts 297°
2026-05-05 14:57 55.53151 49.47239 2730 ft 135 kts 300°
2026-05-05 14:58 55.53684 49.45822 2546 ft 134 kts 302°
2026-05-05 14:58 55.54216 49.44442 2359 ft 133 kts 302°
2026-05-05 14:58 55.54750 49.43062 2175 ft 133 kts 301°
2026-05-05 14:58 55.55286 49.41674 1996 ft 134 kts 301°
2026-05-05 14:59 55.55829 49.40270 1812 ft 134 kts 301°
2026-05-05 14:59 55.56371 49.38870 1624 ft 133 kts 301°
2026-05-05 14:59 55.56915 49.37465 1437 ft 135 kts 301°
2026-05-05 14:59 55.57456 49.36064 1253 ft 132 kts 301°
2026-05-05 15:00 55.57996 49.34669 1069 ft 133 kts 301°
2026-05-05 15:00 55.58529 49.33292 892 ft 132 kts 302°
2026-05-05 15:00 55.59054 49.31937 704 ft 132 kts 301°
2026-05-05 15:00 55.59582 49.30574 531 ft 130 kts 301°
2026-05-05 15:01 55.60103 49.29237 421 ft 123 kts 301°
2026-05-05 15:01 55.60501 49.28194 420 ft 70 kts 305°
2026-05-05 15:01 55.60759 49.27519 420 ft 53 kts 306°
2026-05-05 15:01 55.60912 49.27127 420 ft 30 kts 308°
2026-05-05 15:02 55.61022 49.26850 420 ft 16 kts 306°
2026-05-05 15:02 55.61089 49.26786 420 ft 10 kts 12°
2026-05-05 15:02 55.61150 49.26844 420 ft 3 kts 33°
2026-05-05 15:02 55.61151 49.26845 420 ft 0 kts 33°
2026-05-05 15:03 55.61157 49.26852 420 ft 2 kts 34°
2026-05-05 15:03 55.61174 49.26873 420 ft 3 kts 34°
2026-05-05 15:03 55.61203 49.26908 420 ft 5 kts 35°
2026-05-05 15:04 55.61228 49.26973 420 ft 7 kts 85°
2026-05-05 15:04 55.61199 49.27060 420 ft 9 kts 126°
2026-05-05 15:04 55.61158 49.27163 420 ft 11 kts 124°
2026-05-05 15:04 55.61109 49.27288 420 ft 12 kts 123°
2026-05-05 15:05 55.60993 49.27589 420 ft 15 kts 124°
2026-05-05 15:05 55.60926 49.27760 420 ft 17 kts 124°
2026-05-05 15:05 55.60855 49.27945 420 ft 18 kts 124°
2026-05-05 15:06 55.60786 49.28125 420 ft 10 kts 121°
2026-05-05 15:06 55.60739 49.28245 420 ft 12 kts 125°
2026-05-05 15:06 55.60685 49.28379 420 ft 14 kts 124°
2026-05-05 15:06 55.60641 49.28496 420 ft 10 kts 124°
2026-05-05 15:07 55.60603 49.28597 420 ft 9 kts 117°
2026-05-05 15:07 55.60590 49.28725 420 ft 11 kts 93°
2026-05-05 15:07 55.60583 49.28880 420 ft 13 kts 94°
2026-05-05 15:07 55.60576 49.29057 420 ft 13 kts 89°
2026-05-05 15:08 55.60612 49.29185 419 ft 11 kts 40°
2026-05-05 15:08 55.60685 49.29272 420 ft 13 kts 34°
2026-05-05 15:08 55.60737 49.29362 420 ft 9 kts 94°
2026-05-05 15:08 55.60700 49.29469 420 ft 6 kts 126°
2026-05-05 15:09 55.60688 49.29499 420 ft 0 kts 137°
2026-05-05 15:09 55.60682 49.29502 420 ft 1 kts 178°
2026-05-05 15:09 55.60666 49.29490 420 ft 3 kts 209°
2026-05-05 15:09 55.60653 49.29475 420 ft 0 kts 214°
2026-05-05 15:10 55.60646 49.29466 420 ft 2 kts 214°
2026-05-05 15:10 55.60629 49.29469 420 ft 3 kts 136°
2026-05-05 15:10 55.60636 49.29512 420 ft 5 kts 36°
2026-05-05 15:10 55.60654 49.29535 420 ft 3 kts 35°
2026-05-05 15:11 55.60659 49.29576 420 ft 4 kts 121°
2026-05-05 15:11 55.60656 49.29630 420 ft 3 kts 58°
2026-05-05 15:11 55.60677 49.29662 419 ft 0 kts 36°
2026-05-05 15:11 55.60680 49.29665 420 ft 0 kts 34°